Regional Weather Roundup
Issued by NWS

Home | Current Version | Previous Version | Graphics & Text | Print | Product List | Glossary On
Versions: 1 2 3 4 5 6 7 8 9 10 11 12 13 14 15 16 17 18 19 20 21 22 23 24 25 26 27 28 29 30 31 32 33 34 35 36 37 38 39 40 41 42 43 44 45 46 47 48 49 50
000
ASUS43 KMPX 291010
RWRMN
WEATHER ROUNDUP FOR MINNESOTA
NATIONAL WEATHER SERVICE TWIN CITIES/CHANHASSEN MN
500 AM CDT MON AUG 29 2016


NOTE: "FAIR" INDICATES FEW OR NO CLOUDS BELOW 12,000 FEET WITH NO
SIGNIFICANT WEATHER AND/OR OBSTRUCTIONS TO VISIBILITY. N/A MEANS
CURRENT SKY AND/OR WEATHER CONDITIONS ARE NOT AVAILABLE.

MNZ060>063-068>070-291100-
   Twin Cities Metro

CITY           SKY/WX    TMP DP  RH WIND       PRES   REMARKS
TWIN CITIES    PTCLDY    70  68  93 S7        30.14S
ST PAUL        CLEAR     69  68  96 E3        30.15R
CRYSTAL        CLEAR     69  66  90 SE6       30.13R
BLAINE         CLEAR     72  72 100 S6        30.14S
LAKEVILLE      CLEAR     66  66 100 CALM      30.15S
EDEN PRAIRIE   CLEAR     72  68  87 S6        30.14R
LAKEVILLE      CLEAR     66  66 100 CALM      30.15S
SOUTH ST PAUL  CLEAR     69  68  98 S3        30.15S
LAKE ELMO      FAIR      68  68 100 S5        30.17R FOG
$$
MNZ001>005-007-008-013>017-022>024-027-028-291100-
   Northwest Minnesota

CITY           SKY/WX    TMP DP  RH WIND       PRES   REMARKS
BEMIDJI        CLOUDY    63  62  96 S13       30.10S
HALLOCK        CLOUDY    66  64  94 CALM      30.04R
ROSEAU         CLOUDY    66  61  82 E7        30.06F
WARROAD        CLOUDY    64  61  88 W2        30.08R
THIEF RVR FALL CLOUDY    65  63  93 SW7       30.04R
CROOKSTON      CLOUDY    66  64  94 SE9       30.01S
FOSSTON        CLOUDY    64  63  94 SE6       30.06R
DETROIT LAKES  CLOUDY    68  64  88 E8        30.10R
MOORHEAD       PTCLDY    70  66  88 SE7       30.03R
PARK RAPIDS    LGT RAIN  67  62  84 E15       30.14R
MAHNOMEN       CLOUDY    66  62  88 E8        30.07R
$$
MNZ006-009>011-018-025>026-291100-
   North Central Minnesota

CITY           SKY/WX    TMP DP  RH WIND       PRES   REMARKS
BAUDETTE       CLOUDY    65  62  90 S7        30.05R
FLAG ISLAND    CLOUDY    66  63  88 CALM      30.07S
INTL FALLS     CLOUDY    63  61  93 SE5       30.09R
WASKISH        CLOUDY    63  63 100 S5        30.08R
BIG FORK       RAIN      63  61  94 SE7       30.12F
LONGVILLE      CLOUDY    64  63  94 CALM      30.19F
GRAND RAPIDS   RAIN      61  61 100 S7        30.22R
ORR            RAIN      63  59  88 S6G16     30.11R
COOK           TSTM      63  61  94 SE10      30.13F
WALKER         TSTM      64  62  96 S12       30.13F
$$
MNZ012-019>021-037-291100-
   Northeast Minnesota

CITY           SKY/WX    TMP DP  RH WIND       PRES   REMARKS
DULUTH         TSTM      64  62  93 N7        30.19F
ELY            TSTM      61  61 100 S8        30.15S
HIBBING        LGT RAIN  60  60 100 SE6       30.19R
EVELETH        TSTM      63  62  97 CALM      30.19F
DULUTH HARBOR  TSTM      64  63  94 NE13G21   30.20R
TWO HARBORS    TSTM      64  61  88 W5        30.18R
SILVER BAY     CLOUDY    63  63 100 NW6       30.15R
GRAND MARAIS     N/A     65  62  90 CALM      30.15S
G MARAIS ARPRT TSTM      61  57  88 CALM      30.20S
$$
MNZ029>031-032-039>041-046>048-054>057-064-291100-
   West Central Minnesota

CITY           SKY/WX    TMP DP  RH WIND       PRES   REMARKS
FERGUS FALLS   PTCLDY    70  66  88 SE9       30.07R
WHEATON        CLEAR     73  72  94 N8        30.05R
MORRIS         PTCLDY    72  70  94 S10       30.04F
ALEXANDRIA     TSTM      67  62  84 NE15      30.15R
ELBOW LAKE     CLOUDY    72  69  89 SE14G20   30.07R THUNDER
WADENA         CLOUDY    63  63 100 SE5       30.11F
GLENWOOD       CLOUDY    72  68  88 E10G17    30.12S THUNDER
APPLETON       CLEAR     72  66  83 S6        30.06R
BENSON         CLEAR     70  64  83 S9        30.08R
ORTONVILLE     CLEAR     70  66  88 S7        30.04S
MADISON        CLEAR     70  66  88 S8        30.07S
WILLMAR        FAIR      68  66  94 SE3       30.11S
$$
MNZ033>034-036-042>043-049>051-058-059-291100-
   Central Minnesota

CITY           SKY/WX    TMP DP  RH WIND       PRES   REMARKS
ST CLOUD       MOCLDY    70  70 100 NE5       30.16R
SAUK CENTRE    CLOUDY    71  64  80 NE14      30.14S
PAYNESVILLE    PTCLDY    68  68 100 NE7       30.14R
AITKIN         MIX PCPN  66  61  82 N8        30.18R
PINE RIVER     CLOUDY    63  63 100 N14       30.21R
BRAINERD       RAIN      63  62  97 VRB3      30.16R
STAPLES        CLOUDY    63  63 100 S5        30.12F
LONG PRAIRIE   CLOUDY    68  61  77 NE8       30.16R
LITTLE FALLS   CLOUDY    68  61  77 NW5       30.20R
LITCHFIELD     CLEAR     70  66  88 S3        30.12S
BUFFALO        CLEAR     67  65  90 CALM      30.14R
MAPLE LAKE     CLEAR     69  68  97 CALM      30.14S
HUTCHINSON     CLOUDY    68  66  94 CALM      30.14R
$$
MNZ037-044-045-052-053-291100-
   East Central Minnesota

CITY           SKY/WX    TMP DP  RH WIND       PRES   REMARKS
PRINCETON      CLOUDY    70  68  94 N12G18    30.17R FOG
MORA           CLOUDY    64  64 100 CALM      30.20R
CAMBRIDGE      CLOUDY    70  64  83 CALM      30.15R HAZE
RUSH CITY      CLOUDY    67  66  95 CALM      30.17R
MOOSE LAKE     LGT RAIN  64  63  94 NE6       30.18S
HINCKLEY       CLOUDY    68  63  83 N14G20    30.20R
CLOQUET        RAIN      63  61  94 CALM      30.22R
MCGREGOR       CLOUDY    64  63  94 NE5       30.20S THUNDER
$$
MNZ071>073-080-081-089-090-097-098-291100-
   Southwest Minnesota

CITY           SKY/WX    TMP DP  RH WIND       PRES   REMARKS
MONTEVIDEO     CLEAR     68  66  94 SW9       30.09F
GRANITE FALLS  CLEAR     68  66  92 S9        30.11S
CANBY          CLEAR     72  66  83 S6        30.09S
MARSHALL       CLEAR     68  65  90 S8        30.11S
REDWOOD FALLS  CLEAR     67  63  87 SW10      30.11R
OLIVIA         CLEAR     68  63  83 S5        30.11R
PIPESTONE      CLEAR     66  64  94 S7        30.15R
WINDOM         CLEAR     68  63  83 S12       30.15S
WORTHINGTON    CLOUDY    66  63  90 S8        30.17R
JACKSON          N/A     66  63  88 S6        30.17R
TRACY          CLEAR     69  65  88 S13G18    30.12F
SLAYTON        CLEAR     64  63  94 SW10      30.16S
$$
MNZ065>067-074>077-082>085-091>093-291100-
   South Central Minnesota

CITY           SKY/WX    TMP DP  RH WIND       PRES   REMARKS
MANKATO        CLEAR     68  64  88 S7        30.15R
NEW ULM          N/A     66  64  94 S6        30.13R
ST JAMES       CLEAR     61  59  94 SE3       30.16R
FAIRMONT       CLOUDY    63  62  97 SW5       30.16S
GLENCOE        CLEAR     68  67  98 SE3       30.13S
FARIBAULT      CLEAR     68  66  94 S3        30.16S
OWATONNA       CLEAR     70  66  88 SE5       30.17S FOG
WASECA         CLEAR     63  61  94 SE3       30.18R
ALBERT LEA     CLEAR     68  68 100 CALM      30.18R FOG
$$
MNZ078>079-086>088-094>096-291100-
   Southeast Minnesota

CITY           SKY/WX    TMP DP  RH WIND       PRES   REMARKS
ROCHESTER      CLEAR     65  65 100 S6        30.19S FOG
RED WING       PTCLDY    72  70  94 SE3       30.16R
STANTON        CLEAR     70  68  94 S3        30.15R
DODGE CENTER   CLEAR     64  64 100 CALM      30.18F FOG
WINONA         CLEAR     68  68 100 CALM      30.19S FOG
AUSTIN         PTCLDY    66  66 100 SE3       30.18S FOG
PRESTON        CLEAR     65  63  94 S5        30.20S FOG
$$
ABBREVIATIONS USED IN REMARKS
   TC - TEMPERATURES IN CELSIUS
  WCI - WIND CHILL INDEX
   HX - HEAT INDEX
  VSB - VISIBILITY
$$




USA.gov is the U.S. government's official web portal to all federal, state and local government web resources and services.